Location: Muck Cross
(36.7179°N, 78.3678°W)
Time: 10:39:49
(UTC+00:00)

Transit 2A - All Passes

Search period start: 29 March 2023 00:00
Search period end: 08 April 2023 00:00
Orbit: 591 x 964 km, 66.7° (Epoch: 28 March)

Date Brightness Start Highest point End Pass type
(mag) Time Alt. Az. Time Alt. Az. Time Alt. Az.
29 Mar - 07:28:48 10° ESE 07:30:47 12° E 07:32:51 10° ENE visible
29 Mar - 09:07:43 10° SSW 09:13:00 78° WNW 09:18:55 10° NNE visible
29 Mar - 10:54:33 10° WNW 10:57:19 14° NW 11:00:12 10° NNW daylight
29 Mar - 16:16:08 10° NNE 16:18:14 12° NE 16:20:17 10° ENE daylight
29 Mar - 17:56:34 10° NNW 18:02:52 57° ENE 18:08:54 10° SE daylight
29 Mar - 19:40:52 10° NW 19:45:36 22° WSW 19:50:09 10° SSW daylight
30 Mar - 08:33:10 10° SSW 08:38:24 71° ESE 08:44:15 10° NNE visible
30 Mar - 10:18:27 10° W 10:22:18 19° NW 10:26:23 10° N visible
30 Mar - 17:22:07 10° NNW 17:28:07 40° NE 17:33:53 10° SE daylight
30 Mar - 19:05:38 10° NW 19:11:12 33° WSW 19:16:31 10° S daylight
31 Mar - 07:58:52 10° S 08:03:53 47° ESE 08:09:27 10° NE visible
31 Mar - 09:42:49 10° WSW 09:47:21 26° NW 09:52:16 10° N visible
31 Mar - 16:47:47 10° N 16:53:17 30° NE 16:58:37 10° ESE daylight
31 Mar - 18:30:40 10° NW 18:36:44 48° WSW 18:42:31 10° S daylight
01 Apr - 07:24:52 10° SSE 07:29:27 31° ESE 07:34:28 10° NE visible
01 Apr - 09:07:31 10° WSW 09:12:30 36° NW 09:17:58 10° NNE visible
01 Apr - 16:13:34 10° N 16:18:22 22° NE 16:23:04 10° E daylight
01 Apr - 17:55:52 10° NNW 18:02:13 70° WSW 18:08:14 10° SSE daylight
02 Apr - 06:51:16 10° SSE 06:55:05 20° ESE 06:59:11 10° ENE visible
02 Apr - 08:32:29 10° SW 08:37:43 51° WNW 08:43:32 10° NNE visible
02 Apr - 15:39:34 10° N 15:43:23 16° NE 15:47:09 10° E daylight
02 Apr - 17:21:12 10° NNW 17:27:36 83° ENE 17:33:41 10° SSE daylight
02 Apr - 19:06:52 10° WNW 19:09:57 14° W 19:12:58 10° SW daylight
03 Apr - 06:18:26 10° SE 06:20:47 13° E 06:23:12 10° ENE visible
03 Apr - 07:57:41 10° SSW 08:03:01 76° WNW 08:09:00 10° NNE visible
03 Apr - 09:44:38 10° WNW 09:47:23 13° NW 09:50:14 10° NNW visible
03 Apr - 15:06:03 10° NNE 15:08:19 12° NE 15:10:34 10° ENE daylight
03 Apr - 16:46:38 10° NNW 16:52:56 59° ENE 16:58:56 10° SE daylight
03 Apr - 18:31:01 10° WNW 18:35:37 22° WSW 18:40:02 10° SSW daylight
04 Apr - 07:23:06 10° SSW 07:28:25 74° ESE 07:34:21 10° NNE visible
04 Apr - 09:08:30 10° W 09:12:21 18° NW 09:16:26 10° N visible
04 Apr - 16:12:10 10° NNW 16:18:10 42° NE 16:23:56 10° SE daylight
04 Apr - 17:55:45 10° NW 18:01:13 32° WSW 18:06:27 10° SSW daylight
05 Apr - 06:48:47 10° S 06:53:53 49° ESE 06:59:33 10° NE visible
05 Apr - 08:32:51 10° WSW 08:37:24 25° NW 08:42:19 10° N visible
05 Apr - 15:37:48 10° N 15:43:20 30° NE 15:48:42 10° ESE daylight
05 Apr - 17:20:45 10° NW 17:26:46 46° WSW 17:32:28 10° S daylight
06 Apr - 06:14:44 10° S 06:19:26 32° ESE 06:24:35 10° NE visible
06 Apr - 07:57:31 10° WSW 08:02:31 35° NW 08:08:01 10° NNE visible
06 Apr - 15:03:34 10° N 15:08:26 22° NE 15:13:10 10° E daylight
06 Apr - 16:45:56 10° NNW 16:52:15 68° WSW 16:58:12 10° SSE daylight
07 Apr - 05:41:05 10° SSE 05:45:03 21° ESE 05:49:19 10° ENE visible
07 Apr - 07:22:27 10° SW 07:27:43 50° WNW 07:33:35 10° NNE visible
07 Apr - 14:29:32 10° N 14:33:26 17° NE 14:37:16 10° E daylight
07 Apr - 16:11:14 10° NNW 16:17:38 85° ENE 16:23:40 10° SSE daylight
07 Apr - 17:57:06 10° WNW 17:59:56 13° W 18:02:42 10° SW daylight
